This is the latest recevied weather packets stored in our database for station/object BM2MWA-13. If no packets are shown the sender has not sent any weather packets the latest 10 day(s).
| Time | Temp. | Humidity | Pressure | Rain* | Wind** | Luminosity | Snow |
|---|---|---|---|---|---|---|---|
| 1777990624 | 20.56° C | 96% | 1011 hPa | 1.52 mm | - | - | - |
| 1777990024 | 20.56° C | 96% | 1011 hPa | 2.03 mm | - | - | - |
| 1777989424 | 20.56° C | 97% | 1011 hPa | 2.54 mm | - | - | - |
| 1777988824 | 20.56° C | 96% | 1011.2 hPa | 2.54 mm | - | - | - |
| 1777988223 | 20.56° C | 96% | 1011.3 hPa | 3.56 mm | - | - | - |
| 1777987625 | 20.56° C | 96% | 1011.2 hPa | 3.56 mm | - | - | - |
| 1777987023 | 20.56° C | 97% | 1011.2 hPa | 3.56 mm | - | - | - |
| 1777986424 | 20.56° C | 96% | 1011.4 hPa | 4.57 mm | - | - | - |
| 1777985824 | 20.56° C | 96% | 1011.3 hPa | 5.08 mm | - | - | - |
| 1777985224 | 20.56° C | 96% | 1011.3 hPa | 4.57 mm | - | - | - |
| 1777984623 | 20.56° C | 95% | 1011.1 hPa | 3.56 mm | - | - | - |
| 1777984023 | 20.56° C | 96% | 1011.1 hPa | 3.56 mm | - | - | - |
| 1777983423 | 20.56° C | 96% | 1011.3 hPa | 3.05 mm | - | - | - |
| 1777982824 | 21.11° C | 95% | 1011.3 hPa | 1.52 mm | - | - | - |
| 1777982223 | 21.11° C | 94% | 1010.9 hPa | 1.02 mm | - | - | - |
| 1777981623 | 20.56° C | 95% | 1010.5 hPa | 1.02 mm | - | - | - |
| 1777981024 | 20.56° C | 94% | 1010.4 hPa | 2.03 mm | - | - | - |
| 1777980424 | 20.56° C | 95% | 1009.7 hPa | 2.03 mm | - | - | - |
| 1777979825 | 20.56° C | 96% | 1009.9 hPa | 2.54 mm | - | - | - |
| 1777979223 | 20.56° C | 96% | 1010 hPa | 3.05 mm | - | - | - |
| 1777978623 | 20.56° C | 96% | 1009.9 hPa | 4.06 mm | - | - | - |
| 1777978025 | 20.56° C | 96% | 1010.5 hPa | 5.59 mm | - | - | - |
| 1777977423 | 20.56° C | 96% | 1010.5 hPa | 5.59 mm | - | - | - |
| 1777976823 | 20.56° C | 96% | 1010.6 hPa | 6.1 mm | - | - | - |
| 1777976224 | 20.56° C | 95% | 1010.6 hPa | 6.6 mm | - | - | - |
* Rain latest hour (hover to see other rain measurements)
** Current wind speed in m/s (hover to see current wind gust speed)